When you browse on this site, cookies collect data to enhance your experience and personalize the content and advertising you see.
Visit our Privacy Policy to learn more. By continuing to use the site, you agree to this use of cookies and data.

Previsão horária em Kerewan

Hoje, 28 Setembro, Segunda-feira

Tempo Temperatura Precipitação Vento Pressão Humidade
00:00 +27°C° 0.2 mm 2 m/s 757 mmHg 92%
01:00 +27°C° 0.2 mm 1 m/s 757 mmHg 92%
02:00 +27°C° 0.2 mm 1 m/s 756 mmHg 93%
03:00 +27°C° 0.1 mm 1 m/s 756 mmHg 93%
04:00 +27°C° 0.1 mm 1 m/s 756 mmHg 93%
05:00 +26°C° 0.1 mm 1 m/s 756 mmHg 93%
06:00 +27°C° 0 mm 2 m/s 757 mmHg 90%
07:00 +28°C° 0 mm 2 m/s 757 mmHg 87%
08:00 +29°C° 0 mm 2 m/s 758 mmHg 84%
09:00 +30°C° 0.1 mm 2 m/s 758 mmHg 79%
10:00 +31°C° 0.1 mm 2 m/s 758 mmHg 74%
11:00 +32°C° 0.1 mm 2 m/s 758 mmHg 69%
12:00 +32°C° 1.1 mm 2 m/s 757 mmHg 69%
13:00 +33°C° 1.1 mm 3 m/s 756 mmHg 70%
14:00 +33°C° 1.1 mm 3 m/s 756 mmHg 70%
15:00 +31°C° 1.7 mm 3 m/s 756 mmHg 75%
16:00 +30°C° 1.7 mm 3 m/s 756 mmHg 80%
17:00 +29°C° 1.7 mm 3 m/s 756 mmHg 85%
18:00 +29°C° 0.1 mm 3 m/s 756 mmHg 87%
19:00 +28°C° 0.1 mm 2 m/s 757 mmHg 89%
20:00 +28°C° 0.1 mm 2 m/s 757 mmHg 91%
21:00 +28°C° 0 mm 2 m/s 757 mmHg 91%
22:00 +28°C° 0 mm 2 m/s 758 mmHg 91%
23:00 +28°C° 0 mm 1 m/s 758 mmHg 91%

Amanhã, 29 Setembro, Terça-feira

Tempo Temperatura Precipitação Vento Pressão Humidade
00:00 +27°C° 0 mm 1 m/s 758 mmHg 92%
01:00 +27°C° 0 mm 1 m/s 757 mmHg 92%
02:00 +27°C° 0 mm 1 m/s 757 mmHg 93%
03:00 +27°C° 0 mm 1 m/s 757 mmHg 93%
04:00 +27°C° 0 mm 1 m/s 757 mmHg 94%
05:00 +27°C° 0 mm 1 m/s 757 mmHg 94%
06:00 +28°C° 0 mm 1 m/s 757 mmHg 91%
07:00 +29°C° 0 mm 2 m/s 758 mmHg 88%
08:00 +29°C° 0 mm 2 m/s 758 mmHg 84%
09:00 +31°C° 0 mm 1 m/s 758 mmHg 78%
10:00 +32°C° 0 mm 1 m/s 758 mmHg 71%
11:00 +34°C° 0 mm 1 m/s 758 mmHg 64%
12:00 +34°C° 0 mm 1 m/s 757 mmHg 60%
13:00 +33°C° 0 mm 0 m/s 757 mmHg 56%
14:00 +34°C° 0 mm 0 m/s 756 mmHg 53%
15:00 +35°C° 0.1 mm 1 m/s 756 mmHg 58%
16:00 +34°C° 0.1 mm 1 m/s 756 mmHg 64%
17:00 +34°C° 0.1 mm 2 m/s 756 mmHg 70%
18:00 +32°C° 0.2 mm 2 m/s 756 mmHg 75%
19:00 +30°C° 0.2 mm 2 m/s 757 mmHg 80%
20:00 +29°C° 0.2 mm 2 m/s 757 mmHg 85%
21:00 +28°C° 0.5 mm 2 m/s 758 mmHg 87%
22:00 +28°C° 0.5 mm 2 m/s 758 mmHg 88%
23:00 +28°C° 0.5 mm 2 m/s 758 mmHg 90%

Depois de amanhã, 30 Setembro, Quarta-feira

Tempo Temperatura Precipitação Vento Pressão Humidade
00:00 +28°C° 0 mm 2 m/s 757 mmHg 90%
01:00 +27°C° 0 mm 2 m/s 757 mmHg 90%
02:00 +27°C° 0 mm 2 m/s 757 mmHg 89%
03:00 +27°C° 0 mm 2 m/s 756 mmHg 89%
04:00 +27°C° 0 mm 2 m/s 756 mmHg 89%
05:00 +27°C° 0 mm 1 m/s 756 mmHg 89%
06:00 +27°C° 0 mm 2 m/s 757 mmHg 86%
07:00 +28°C° 0 mm 2 m/s 757 mmHg 83%
08:00 +29°C° 0 mm 2 m/s 758 mmHg 80%
09:00 +31°C° 0 mm 2 m/s 758 mmHg 74%
10:00 +32°C° 0 mm 2 m/s 757 mmHg 68%
11:00 +35°C° 0 mm 2 m/s 757 mmHg 62%
12:00 +35°C° 0.2 mm 2 m/s 757 mmHg 61%
13:00 +35°C° 0.2 mm 2 m/s 756 mmHg 60%
14:00 +36°C° 0.2 mm 2 m/s 756 mmHg 59%
15:00 +35°C° 0.4 mm 3 m/s 755 mmHg 65%
16:00 +34°C° 0.4 mm 3 m/s 755 mmHg 72%
17:00 +32°C° 0.4 mm 4 m/s 755 mmHg 79%
18:00 +30°C° 0.3 mm 4 m/s 756 mmHg 81%
19:00 +30°C° 0.3 mm 4 m/s 756 mmHg 84%
20:00 +29°C° 0.3 mm 4 m/s 757 mmHg 86%
21:00 +28°C° 0 mm 4 m/s 757 mmHg 86%
22:00 +28°C° 0 mm 3 m/s 757 mmHg 87%
23:00 +28°C° 0 mm 3 m/s 757 mmHg 87%

1 Outubro, Quinta-feira

Tempo Temperatura Precipitação Vento Pressão Humidade
00:00 +28°C° 0 mm 3 m/s 757 mmHg 88%
01:00 +28°C° 0 mm 2 m/s 757 mmHg 89%
02:00 +27°C° 0 mm 2 m/s 756 mmHg 89%
03:00 +27°C° 0 mm 2 m/s 756 mmHg 90%
04:00 +27°C° 0 mm 2 m/s 756 mmHg 91%
05:00 +27°C° 0 mm 2 m/s 756 mmHg 91%
06:00 +28°C° 0 mm 2 m/s 756 mmHg 88%
07:00 +29°C° 0 mm 3 m/s 756 mmHg 84%
08:00 +30°C° 0 mm 3 m/s 757 mmHg 80%
09:00 +31°C° 0 mm 3 m/s 757 mmHg 72%
10:00 +34°C° 0 mm 3 m/s 757 mmHg 64%
11:00 +35°C° 0 mm 3 m/s 757 mmHg 56%
12:00 +35°C° 0 mm 3 m/s 756 mmHg 56%
13:00 +36°C° 0 mm 3 m/s 755 mmHg 56%
14:00 +36°C° 0 mm 3 m/s 755 mmHg 56%
15:00 +35°C° 0 mm 4 m/s 755 mmHg 63%
16:00 +33°C° 0 mm 4 m/s 755 mmHg 70%
17:00 +32°C° 0 mm 4 m/s 755 mmHg 77%
18:00 +30°C° 0 mm 4 m/s 755 mmHg 80%
19:00 +29°C° 0 mm 4 m/s 756 mmHg 82%
20:00 +28°C° 0 mm 3 m/s 756 mmHg 85%
21:00 +28°C° 0 mm 3 m/s 756 mmHg 86%
22:00 +28°C° 0 mm 3 m/s 756 mmHg 87%
23:00 +28°C° 0 mm 3 m/s 756 mmHg 88%

2 Outubro, Sexta-feira

Tempo Temperatura Precipitação Vento Pressão Humidade
00:00 +28°C° 0 mm 3 m/s 756 mmHg 89%
01:00 +27°C° 0 mm 3 m/s 755 mmHg 90%
02:00 +27°C° 0 mm 3 m/s 755 mmHg 91%
03:00 +27°C° 0 mm 2 m/s 755 mmHg 92%
04:00 +27°C° 0 mm 2 m/s 755 mmHg 93%
05:00 +27°C° 0 mm 2 m/s 754 mmHg 94%
06:00 +28°C° 0 mm 2 m/s 755 mmHg 90%
07:00 +29°C° 0 mm 3 m/s 755 mmHg 85%
08:00 +30°C° 0 mm 3 m/s 756 mmHg 81%
09:00 +31°C° 0 mm 3 m/s 756 mmHg 73%
10:00 +33°C° 0 mm 3 m/s 756 mmHg 66%
11:00 +35°C° 0 mm 2 m/s 756 mmHg 58%
12:00 +35°C° 0 mm 2 m/s 755 mmHg 56%
13:00 +36°C° 0 mm 2 m/s 754 mmHg 54%
14:00 +37°C° 0 mm 2 m/s 754 mmHg 52%
15:00 +35°C° 0 mm 3 m/s 754 mmHg 59%
16:00 +34°C° 0 mm 4 m/s 753 mmHg 67%
17:00 +33°C° 0 mm 4 m/s 753 mmHg 75%
18:00 +32°C° 0 mm 4 m/s 754 mmHg 78%
19:00 +30°C° 0 mm 4 m/s 754 mmHg 81%
20:00 +29°C° 0 mm 4 m/s 755 mmHg 83%
21:00 +28°C° 0 mm 3 m/s 755 mmHg 84%
22:00 +28°C° 0 mm 3 m/s 756 mmHg 85%
23:00 +28°C° 0 mm 3 m/s 756 mmHg 86%

3 Outubro, Sábado

Tempo Temperatura Precipitação Vento Pressão Humidade
00:00 +28°C° 0 mm 3 m/s 755 mmHg 87%
01:00 +27°C° 0 mm 3 m/s 755 mmHg 89%
02:00 +27°C° 0 mm 3 m/s 754 mmHg 90%
03:00 +27°C° 0 mm 3 m/s 755 mmHg 89%
04:00 +27°C° 0 mm 2 m/s 755 mmHg 89%
05:00 +26°C° 0 mm 2 m/s 755 mmHg 89%
06:00 +27°C° 0 mm 3 m/s 755 mmHg 84%
07:00 +28°C° 0 mm 3 m/s 755 mmHg 78%
08:00 +29°C° 0 mm 3 m/s 756 mmHg 73%
09:00 +31°C° 0 mm 2 m/s 756 mmHg 65%
10:00 +32°C° 0 mm 2 m/s 756 mmHg 57%
11:00 +35°C° 0 mm 2 m/s 756 mmHg 49%
12:00 +35°C° 0 mm 2 m/s 755 mmHg 46%
13:00 +36°C° 0 mm 2 m/s 754 mmHg 44%
14:00 +37°C° 0 mm 2 m/s 754 mmHg 42%
15:00 +35°C° 0 mm 3 m/s 754 mmHg 51%
16:00 +33°C° 0 mm 3 m/s 754 mmHg 60%
17:00 +32°C° 0 mm 4 m/s 754 mmHg 70%
18:00 +30°C° 0 mm 4 m/s 754 mmHg 74%
19:00 +29°C° 0 mm 4 m/s 755 mmHg 78%
20:00 +28°C° 0 mm 4 m/s 755 mmHg 82%
21:00 +28°C° 0 mm 3 m/s 755 mmHg 84%
22:00 +27°C° 0 mm 3 m/s 756 mmHg 87%
23:00 +27°C° 0 mm 2 m/s 756 mmHg 89%
Mostrar mais